Voltar ao catálogo

STARLINK-34592

AtivoComunicaçõesVLEO
NORAD 64746·PAYLOAD·🇺🇸 United States

Lançado Jul 2, 2025 de Cape Canaveral Space Force Station

Loading…

Próximas Passagens (próximas 24 horas)

TLE

AtualizadoSource: CelesTrak SupGP

Época: Sep 14, 2026, 22:32 UTC

1 64746C 25144Y   26257.93937500 -.00006110  00000+0 -18054-3 0  2578
2 64746  53.1608   7.6271 0001209  74.4374 128.1380 15.34392726    12

Acompanhe STARLINK-34592 em tempo real com AllMySat

Download on the App Store